VU3EFG Weather Reports


time (UTC)temp
C
wind
direction
speed
KPH
gust
KPH
rain 1hr
cm
rain 24hr
cm
rain mn
cm
humidity
%
barometer
mb
20260505015010 26 310 0.0 0.0 0.00 0.00 0.00 90 1004.0
20260505014511 26 300 0.0 0.0 0.00 0.00 0.00 91 1004.0
20260505014010 26 315 0.0 0.0 0.00 0.00 0.00 91 1003.8
20260505013510 26 315 0.0 1.6 0.00 0.00 0.00 90 1003.8
20260505013010 26 303 3.2 3.2 0.00 0.00 0.00 91 1003.6
20260505012510 26 338 1.6 3.2 0.00 0.00 0.00 92 1003.6
20260505012011 26 312 3.2 4.8 0.00 0.00 0.00 92 1003.6
20260505011511 25 309 0.0 0.0 0.00 0.00 0.00 93 1003.8
20260505011010 25 315 0.0 0.0 0.00 0.00 0.00 94 1003.8
20260505010510 25 338 0.0 0.0 0.00 0.00 0.00 95 1003.7
20260505010010 25 315 0.0 0.0 0.00 0.00 0.00 96 1003.7
20260505005510 25 315 0.0 0.0 0.00 0.00 0.00 96 1003.7
20260505005010 25 338 0.0 0.0 0.00 0.00 0.00 97 1003.7
20260505004510 25 326 0.0 0.0 0.00 0.00 0.00 97 1003.7
20260505004010 25 317 0.0 0.0 0.00 0.00 0.00 97 1003.4
20260505003511 25 338 0.0 0.0 0.00 0.00 0.00 97 1003.4
20260505003010 25 321 0.0 0.0 0.00 0.00 0.00 97 1003.5
20260505002510 25 292 0.0 0.0 0.00 0.00 0.00 97 1003.5
20260505002010 25 315 0.0 0.0 0.00 0.00 0.00 97 1003.4
20260505001010 25 292 0.0 0.0 0.00 0.00 0.00 97 1003.4
20260505000511 25 292 0.0 0.0 0.00 0.00 0.00 97 1003.4
20260505000010 25 292 0.0 0.0 0.00 0.00 0.00 97 1003.4
20260504235010 25 328 0.0 0.0 0.00 0.00 0.00 96 1003.3
20260504234510 25 315 0.0 0.0 0.00 0.00 0.00 96 1003.3
20260504234010 25 315 0.0 0.0 0.00 0.00 0.00 96 1003.2
20260504233510 25 315 0.0 0.0 0.00 0.00 0.00 96 1003.2
20260504233010 25 315 0.0 0.0 0.00 0.00 0.00 96 1003.0
20260504232510 25 315 0.0 0.0 0.00 0.00 0.00 96 1003.0
20260504232010 25 315 0.0 0.0 0.00 0.00 0.00 96 1002.8
20260504231510 25 315 0.0 0.0 0.00 0.00 0.00 96 1002.8
20260504231010 25 328 0.0 0.0 0.00 0.00 0.00 96 1002.8
20260504230511 25 315 0.0 0.0 0.00 0.00 0.00 96 1002.7
20260504230010 25 315 0.0 0.0 0.00 0.00 0.00 96 1002.7
20260504225510 25 315 0.0 0.0 0.00 0.00 0.00 95 1002.6
20260504224510 25 315 0.0 0.0 0.00 0.00 0.00 95 1002.6
20260504223510 25 338 0.0 0.0 0.00 0.00 0.00 94 1002.4
20260504223010 25 338 0.0 0.0 0.00 0.00 0.00 94 1002.2
20260504222510 25 338 0.0 0.0 0.00 0.00 0.00 94 1002.2
20260504222009 25 338 0.0 0.0 0.00 0.00 0.00 94 1002.2
20260504221510 25 3 3.2 4.8 0.00 0.00 0.00 94 1002.1
20260504221010 25 297 0.0 3.2 0.00 0.00 0.00 94 1002.1
20260504220510 25 292 1.6 3.2 0.00 0.00 0.00 94 1002.0
20260504215510 25 292 0.0 3.2 0.00 0.00 0.00 94 1001.8
20260504215010 26 321 0.0 3.2 0.00 0.00 0.00 94 1001.8
20260504214510 25 315 0.0 3.2 0.00 0.00 0.00 94 1001.8
20260504214010 25 328 3.2 3.2 0.00 0.00 0.00 94 1002.0
20260504213511 25 292 0.0 0.0 0.00 0.00 0.00 93 1002.0
20260504212510 26 292 0.0 0.0 0.00 0.00 0.00 93 1002.0
20260504211510 26 292 1.6 3.2 0.00 0.00 0.00 93 1002.0
20260504211010 26 338 1.6 3.2 0.00 0.00 0.00 92 1002.0
20260504210510 26 303 0.0 3.2 0.00 0.00 0.00 92 1002.0
20260504210010 26 302 0.0 0.0 0.00 0.00 0.00 91 1002.0
20260504205510 26 315 1.6 3.2 0.00 0.00 0.00 91 1002.1
20260504205010 26 315 0.0 0.0 0.00 0.00 0.00 91 1002.1
20260504204510 26 315 0.0 0.0 0.00 0.00 0.00 91 1002.1
20260504204010 26 315 1.6 3.2 0.00 0.00 0.00 91 1002.1
20260504203510 26 335 0.0 0.0 0.00 0.00 0.00 91 1002.1
20260504201510 26 315 0.0 0.0 0.00 0.00 0.00 90 1002.3
20260504200510 26 315 1.6 3.2 0.00 0.00 0.00 89 1002.4
20260504200010 26 315 3.2 3.2 0.00 0.00 0.00 89 1002.4
20260504195510 26 302 0.0 1.6 0.00 0.00 0.00 88 1002.7
20260504195010 26 292 1.6 3.2 0.00 0.00 0.00 88 1002.7
20260504194510 26 315 3.2 3.2 0.00 0.00 0.00 88 1002.7
20260504194010 26 292 1.6 3.2 0.00 0.00 0.00 88 1002.9
20260504192010 26 323 3.2 4.8 0.00 0.00 0.00 86 1003.2
20260504191510 26 315 3.2 3.2 0.00 0.00 0.00 86 1003.3
20260504191010 26 292 0.0 3.2 0.00 0.00 0.00 85 1003.3
20260504190510 26 327 3.2 4.8 0.00 0.00 0.00 85 1003.6
20260504190010 26 304 3.2 3.2 0.00 0.00 0.00 85 1003.6
20260504185510 26 292 3.2 4.8 0.00 0.00 0.00 85 1003.8
20260504185010 26 324 0.0 3.2 0.00 0.00 0.00 84 1003.8
20260504184510 26 328 1.6 3.2 0.00 0.00 0.00 84 1003.8
20260504184009 26 329 3.2 8.0 0.00 0.00 0.00 84 1003.9
20260504183510 26 338 3.2 4.8 0.00 0.00 0.00 84 1003.9
20260504183009 26 4 3.2 4.8 0.00 0.00 0.00 84 1004.2
20260504182509 26 338 3.2 4.8 0.00 0.00 0.00 84 1004.2
20260504182010 26 347 4.8 8.0 0.00 0.00 0.00 84 1004.2
20260504181509 26 337 1.6 4.8 0.00 0.00 0.00 84 1004.2
20260504181009 26 315 3.2 4.8 0.00 0.00 0.00 84 1004.2
20260504180010 27 333 3.2 8.0 0.00 0.00 0.00 84 1004.3
20260504175510 27 299 3.2 3.2 0.00 0.00 0.00 84 1004.5
20260504175010 27 294 3.2 8.0 0.00 0.00 0.00 84 1004.5
20260504174509 27 325 3.2 4.8 0.00 0.00 0.00 84 1004.5
20260504173509 27 338 3.2 4.8 0.00 0.00 0.00 84 1004.7
20260504173010 27 356 3.2 4.8 0.00 0.00 0.00 84 1004.7
20260504172509 27 305 4.8 8.0 0.00 0.00 0.00 84 1004.7
20260504172009 27 0 4.8 8.0 0.00 0.00 0.00 84 1004.7
20260504171509 27 298 4.8 8.0 0.00 0.00 0.00 84 1004.8
20260504170510 27 322 3.2 9.7 0.00 0.00 0.00 85 1005.0
20260504151009 28 306 4.8 4.8 0.00 0.00 0.00 89 1004.6
20260504150509 28 270 3.2 3.2 0.00 0.00 0.00 88 1004.4
20260504141009 29 287 4.8 8.0 0.00 0.00 0.00 85 1003.7
20260504110510 33 224 4.8 9.7 0.00 0.00 0.00 70 1000.9
20260504100509 34 190 6.4 9.7 0.00 0.00 0.00 66 1001.5
20260504082008 33 277 9.7 16.1 0.00 0.00 0.00 69 1002.5
20260504081509 33 205 8.0 9.7 0.00 0.00 0.00 69 1002.6
20260504050509 31 270 8.0 11.3 0.00 0.00 0.00 75 1004.1
20260504050009 31 270 4.8 16.1 0.00 0.00 0.00 76 1004.1
20260504044509 31 284 4.8 11.3 0.00 0.00 0.00 78 1004.2
20260504044008 30 320 8.0 14.5 0.00 0.00 0.00 79 1004.5
20260504043509 30 296 6.4 12.9 0.00 0.00 0.00 79 1004.5
20260504043009 30 275 8.0 14.5 0.00 0.00 0.00 79 1004.6
20260504042008 30 298 4.8 14.5 0.00 0.00 0.00 80 1004.6
20260504041508 30 276 8.0 14.5 0.00 0.00 0.00 80 1004.6
20260504041009 30 270 6.4 11.3 0.00 0.00 0.00 80 1004.6
20260504040508 30 315 6.4 9.7 0.00 0.00 0.00 81 1004.6
20260504040009 30 285 4.8 9.7 0.00 0.00 0.00 82 1004.6
20260504035508 30 295 9.7 12.9 0.00 0.00 0.00 82 1004.6
20260504035008 30 270 4.8 11.3 0.00 0.00 0.00 82 1004.6
20260504034008 30 280 4.8 9.7 0.00 0.00 0.00 83 1004.6
20260504033508 30 303 3.2 9.7 0.00 0.00 0.00 83 1004.6
20260504033008 29 270 4.8 9.7 0.00 0.00 0.00 84 1004.5
20260504032508 29 292 4.8 8.0 0.00 0.00 0.00 84 1004.5
20260504032007 29 296 3.2 4.8 0.00 0.00 0.00 84 1004.5
20260504031508 28 292 6.4 9.7 0.00 0.00 0.00 84 1004.3
20260504030508 28 320 8.0 9.7 0.00 0.00 0.00 84 1004.2
20260504030008 29 271 6.4 9.7 0.00 0.00 0.00 84 1004.2
20260504025508 29 270 4.8 11.3 0.00 0.00 0.00 84 1004.1
20260504024008 28 333 3.2 9.7 0.00 0.00 0.00 84 1004.0
20260504023508 28 301 4.8 9.7 0.00 0.00 0.00 84 1004.0
20260504023008 28 292 3.2 9.7 0.00 0.00 0.00 84 1004.0
20260504022507 28 302 4.8 9.7 0.00 0.00 0.00 84 1004.0
20260504022008 28 272 8.0 9.7 0.00 0.00 0.00 84 1004.0
20260504021508 28 285 6.4 9.7 0.00 0.00 0.00 86 1003.9
20260504021009 28 302 4.8 11.3 0.00 0.00 0.00 86 1003.9
20260504020508 28 289 8.0 9.7 0.00 0.00 0.00 88 1003.8
20260504020008 27 309 4.8 9.7 0.00 0.00 0.00 89 1003.8